Regional Weather Roundup
Issued by NWS

Home | Current Version | Previous Version | Text Only | Print | Product List | Glossary Off
Versions: 1 2 3 4 5 6 7 8 9 10 11 12 13 14 15 16 17 18 19 20 21 22 23 24 25 26 27

000
ASUS45 KBOU 111610
RWRCO

WEATHER ROUNDUP FOR COLORADO
NATIONAL WEATHER SERVICE DENVER/BOULDER CO
900 AM MST MON DEC 11 2017

NOTE: "FAIR" INDICATES FEW OR NO CLOUDS BELOW 12000 FEET WITH NO
SIGNIFICANT WEATHER AND/OR OBSTRUCTIONS TO VISIBILITY.

COZ001>005-013-030-031-111700-
...NORTHWEST COLORADO...

CITY           SKY/WX    TMP DP  RH WIND       PRES   REMARKS
CRAIG          FAIR      10   6  84 CALM      30.56R
HAYDEN         FAIR      20   8  60 E12       30.56R WCI   8
MEEKER         FAIR      21   7  54 CALM      30.55R
RABBIT EARS PA FAIR      27   1  33 W8G17     30.55R WCI  18
STEAMBOAT SPGS FAIR      13   7  75 CALM      30.56R
WALDEN         FAIR      10  -2  56 CALM      30.52S
$$

COZ006>008-011-111700-
...WEST CENTRAL VALLEYS...

CITY           SKY/WX    TMP DP  RH WIND       PRES   REMARKS
GRAND JUNCTION FAIR      29   2  31 SE9       30.55S WCI  20
MONTROSE       FAIR      24   2  38 S5        30.59S WCI  18
EAGLE          FAIR      11   3  70 CALM      30.67R
RIFLE          FAIR      22   6  50 CALM      30.59S
DELTA          FAIR      21   0  40 CALM      30.58S
NUCLA          FAIR      23  -8  25 CALM      30.59R
$$

COZ017>023-064>068-111700-
...SOUTHWEST COLORADO...

CITY           SKY/WX    TMP DP  RH WIND       PRES   REMARKS
DURANGO        FAIR      23   3  42 NE6       30.49S WCI  16
CORTEZ         FAIR      20   2  45 CALM      30.51S
PAGOSA SPRINGS FAIR      32   2  27 CALM      30.49S
TELLURIDE      FAIR      35  -3  19 CALM      30.58S
WOLF CREEK PAS FAIR      30  -4  22 NW6       30.65S WCI  24
$$

COZ009-010-012-014-032>034-037-058>063-111700-
...CENTRAL COLORADO...

CITY           SKY/WX    TMP DP  RH WIND       PRES   REMARKS
ASPEN          FAIR      27   6  41 CALM      30.53F
BUENA VISTA    FAIR      30  -4  23 E6        30.50S WCI  24
COPPER MTN     NOT AVBL
BERTHOUD PASS  FAIR      19   9  63 NW31G39   30.52R WCI   0
COTTONWOOD PAS FAIR      45  -8  11 NW3       30.52S
GUNNISON       FAIR       6  -1  73 SE3       30.65S
KREMMLING      CLOUDY     9   3  78 CALM      30.65S FOG
LEADVILLE      FAIR      28 -10  18 NE9       30.52F WCI  19
MONARCH PASS   FAIR      27 -11  18 SW17G26   30.69R WCI  14
SALIDA         FAIR      32   1  27 W5        30.58R WCI  28
SUNLIGHT       FAIR      28 -18  12 W7        30.62R WCI  21
WILKERSON PASS FAIR      32  -9  16 NW8G26    30.54S WCI  25
$$

COZ069>075-111700-
...SAN LUIS VALLEY/SANGRE DE CRISTO MOUNTAINS...

CITY           SKY/WX    TMP DP  RH WIND       PRES   REMARKS
ALAMOSA        FAIR      20  -1  40 CALM      30.52F
DEL NORTE      FAIR      28  -5  23 W15       30.52S WCI  16
LA VETA PASS   FAIR      32  -8  18 S14         N/A  WCI  22
SAGUACHE       FAIR      23  -4  30 SE3       30.54R
$$

COZ035-036-038>040-111700-
...NORTHERN COLORADO FRONT RANGE...

CITY           SKY/WX    TMP DP  RH WIND       PRES   REMARKS
DENVER INTL AP FAIR      46  -1  14 SW10      30.33R
DMNS CITY PARK NOT AVBL
AURORA         MOSUNNY   47  -2  13 S7        30.33R
FRONT RANGE AP MOSUNNY   46   3  17 CALM      30.34R
ERIE MUNI ARPT FAIR      35   6  30 CALM      30.39R
BOULDER MUN AP FAIR      43   7  22 CALM      30.32S
CENTENNIAL     FAIR      46   6  19 E5        30.33R
BROOMFIELD     MOSUNNY   46   1  15 CALM      30.33R
FORT COLLINS   FAIR      39  10  30 NE8       30.35R
LONGMONT       FAIR      37  12  36 CALM      30.35R
$$

COZ041-046-047-076>085-087-088-111700-
...PIKES PEAK/PALMER DIVIDE AND SOUTHERN FOOTHILLS...

CITY           SKY/WX    TMP DP  RH WIND       PRES   REMARKS
COLO. SPRINGS  FAIR      47   0  14 N6        30.37R
A. F. ACADEMY  FAIR      39  -2  17 N5        30.36S
SCHRIEVER AFB  FAIR      53  -5   9 SW3       30.37R
CHEYENNE MTN   FAIR      52  -6   9 SE15G21   30.32F
ELLICOTT         N/A    N/A N/A N/A CALM      30.35R
FALCON         FAIR      50  -8   9 W5        30.39R
FORT CARSON    FAIR      45   1  16 N3        30.35R
LIMON          FAIR      39   0  19 CALM      30.35R
MONUMENT HILL  FAIR      43   1  17 SW6       30.39R
CANON CITY     FAIR      46   0  14 W13G21    30.35F
WALSENBURG     FAIR      54   0  11 W10G16    30.38F
TRINIDAD       FAIR      40   7  25 NW12      30.39R
$$

COZ042>045-048>051-090-091-111700-
...NORTHEAST COLORADO...

CITY           SKY/WX    TMP DP  RH WIND       PRES   REMARKS
GREELEY ARPT   FAIR      28  12  51 SW6       30.35R WCI  22
AKRON          FAIR      44   3  18 NW18      30.32R
BURLINGTON     FAIR      48   9  20 N12       30.31R
WRAY           FAIR      48   5  17 MISG      30.30R
YUMA           FAIR      43   7  22 NW16      30.31R
STERLING       FAIR      50  12  22 NW16      30.31S
HOLYOKE        FAIR      50  12  22 NW24G31   30.27R
FORT MORGAN    FAIR      37   6  27 NW6       30.34R
$$

COZ086-089-092>099-111700-
...SOUTHEAST COLORADO...

CITY           SKY/WX    TMP DP  RH WIND       PRES   REMARKS
PUEBLO         FAIR      38   7  27 SW3       30.35S
LA JUNTA       FAIR      39   3  22 W7        30.36R
LAMAR          FAIR      38   4  24 W9        30.34R
SPRINGFIELD      N/A     51   3  14 N16       30.32S
$$




USA.gov is the U.S. government's official web portal to all federal, state and local government web resources and services.